User: anonymous   Login
Location: Zilina
(0.0000°N, 18.7333°E)
Time: 06:42:35
(UTC+01:00)
Language:

MOS 1 - Orbit

View from above orbital plane
View from above orbital plane
View from above satellite
View from above satellite

Ground track
Ground track

The orbit data is extracted from the following two-line orbital elements,

1 17527U 87018A   19315.79730490 -.00000163  00000-0 -76065-4 0  9994
2 17527  99.1884 351.9197 0009130  39.4030  87.9012 14.02540433672479
Epoch (UTC): 11 November 2019 19:08:07
Eccentricity: 0.0009130
inclination: 99.1884°
perigee height: 878 km
apogee height: 891 km
right ascension of ascending node: 351.9197°
argument of perigee: 39.4030°
revolutions per day: 14.02540433
mean anomaly at epoch: 87.9012°
orbit number at epoch: 67247

The dashed part of the orbit path shows where the satellite is in the earth's shadow,  

DLR